Theta_e
308 308 308 309 307 307 307 307 307 306 306 306 305 305 305 305 307 307 307 307 306 306 307 307 307 307 301 290 290 302 310 307 304 308 305 303 296 293 288 289 290 287 287 290 292 293 291
307 307 308 308 308 308 307 307 307 306 306 306 305 304 304 305 305 305 306 306 306 306 306 307 307 307 296 285 298 301 301 299 304 304 302 301 297 297 292 291 289 290 290 291 291 291 290
307 307 306 306 307 307 308 308 307 307 306 306 305 304 304 305 305 305 305 305 305 305 305 306 306 299 293 289 298 300 299 297 298 297 297 303 302 295 293 289 293 292 288 291 291 290 289
306 306 306 306 306 306 307 307 307 306 305 305 303 304 304 305 305 305 305 304 305 305 305 304 305 296 289 298 298 298 299 297 299 298 300 306 303 299 293 292 290 286 285 282 290 291 291
306 305 306 307 305 305 306 305 305 304 305 305 304 304 304 304 304 303 304 304 305 304 303 302 291 291 286 301 295 300 298 292 290 296 301 304 301 295 291 288 283 283 280 281 284 290 290
305 306 306 306 305 304 305 305 306 305 304 303 303 303 304 304 304 303 304 304 302 299 296 294 293 286 290 289 293 291 292 291 288 288 287 295 294 289 289 285 276 279 279 280 280 287 289
305 305 305 305 305 304 305 303 303 304 304 304 302 303 304 304 304 304 301 290 285 283 287 282 283 283 285 288 291 289 291 289 287 284 277 283 284 282 284 287 286 284 282 281 284 288 287
304 304 304 304 304 304 303 303 304 303 303 302 302 303 303 303 304 303 293 286 287 289 281 287 287 286 288 289 283 286 292 284 282 276 281 280 278 284 288 288 286 285 282 281 284 287 285
304 304 304 304 303 304 304 302 303 303 304 302 302 303 303 303 303 295 289 289 295 294 281 282 285 284 285 287 281 283 288 286 281 278 277 274 279 287 284 284 283 283 281 282 282 284 286
304 304 303 302 303 303 303 302 302 302 301 302 302 302 303 303 294 290 288 293 295 294 274 275 279 283 287 287 281 290 290 286 282 276 279 275 280 278 278 280 284 279 285 284 283 282 276
303 304 303 302 302 302 301 302 303 303 302 302 302 302 302 302 292 287 290 294 296 286 258 275 279 290 285 281 281 282 289 286 278 278 280 274 278 279 277 279 285 282 286 283 283 281 280
303 303 303 302 302 302 302 302 302 302 302 301 301 302 302 295 290 291 293 293 287 266 255 273 278 278 278 280 280 282 282 287 287 281 281 278 284 285 284 286 287 287 284 283 282 280 273
304 302 304 302 303 301 301 301 301 302 302 301 301 301 299 294 285 291 292 283 264 259 273 269 273 276 277 275 277 279 278 274 274 271 268 277 277 281 283 279 282 282 281 273 272 272 271
303 302 303 302 302 300 301 302 301 301 302 301 301 300 295 293 291 290 285 271 256 262 266 276 276 276 273 277 275 273 274 273 278 278 274 273 268 275 282 279 276 279 280 274 268 269 271
303 301 302 302 301 301 301 301 300 301 301 301 300 289 287 288 293 288 279 260 261 268 276 274 274 270 270 276 276 271 270 273 275 280 272 272 270 280 281 283 281 277 275 281 274 260 264
302 302 301 302 301 301 300 300 300 300 300 300 287 284 283 290 290 283 271 267 265 277 278 275 269 273 270 271 272 272 271 275 278 282 283 276 269 280 282 284 283 281 284 276 276 269 268
302 302 300 301 301 300 300 300 300 299 300 299 284 277 284 291 286 275 264 262 272 279 279 274 273 272 273 273 274 272 272 278 281 280 282 277 274 274 282 276 273 279 277 275 278 276 269
301 301 300 300 300 300 300 299 300 299 300 295 287 272 284 287 272 265 267 267 279 277 279 277 278 276 275 275 274 272 273 277 282 282 273 279 276 269 274 281 281 279 277 277 270 266 268
301 301 299 300 300 299 299 299 299 299 299 291 283 276 285 285 270 266 268 271 275 274 275 271 275 278 279 276 272 273 276 281 282 279 276 278 273 269 272 278 281 277 276 277 273 271 268
301 300 300 300 300 299 299 299 298 299 300 293 283 274 274 281 278 274 271 268 266 277 275 278 277 279 276 272 273 272 275 280 281 280 285 283 276 274 269 273 277 275 278 279 278 270 266
300 299 299 300 299 299 298 298 298 299 299 291 284 277 273 274 273 274 269 271 272 266 274 277 273 275 274 272 268 264 272 276 277 281 278 274 267 274 275 272 274 275 273 273 276 277 276
300 299 298 299 298 298 298 298 298 299 298 288 281 279 279 272 277 275 273 269 273 274 271 273 272 275 276 273 274 272 275 275 275 275 273 273 270 271 269 272 274 271 271 272 272 268 265
300 299 298 299 298 297 297 297 298 299 297 287 288 287 281 276 274 270 271 273 274 276 277 278 277 275 273 275 278 280 281 280 279 276 275 275 272 268 265 270 272 266 270 271 272 272 271
300 299 298 298 297 297 297 297 298 298 297 289 288 286 279 271 271 274 275 276 275 276 274 277 278 272 279 283 282 279 276 278 278 277 279 274 270 268 265 266 261 270 273 273 273 273 273
300 298 298 297 297 296 297 296 298 298 298 287 285 285 279 272 277 277 276 275 276 276 275 276 279 281 283 278 274 269 271 273 270 276 276 277 274 270 267 261 268 271 272 272 270 271 273
299 298 297 297 296 296 296 296 297 298 297 287 285 285 284 277 272 279 273 274 269 271 273 277 282 282 281 279 274 267 267 270 271 273 280 277 276 273 266 264 260 268 275 276 274 267 273
299 298 297 297 296 296 295 296 297 297 297 290 285 288 285 277 276 274 269 271 276 275 274 273 276 275 279 274 270 270 270 273 268 268 269 271 271 268 268 266 265 273 275 278 266 265 274
299 297 297 296 295 295 295 295 297 297 297 291 286 287 285 280 279 280 280 273 275 277 272 273 272 272 270 269 268 271 270 273 271 272 271 270 268 268 270 266 263 275 275 270 273 275 273
299 297 296 296 295 295 295 295 297 297 297 292 282 287 291 284 277 282 283 284 283 282 280 277 275 272 276 272 271 269 267 272 268 267 275 269 271 270 271 270 276 276 273 275 274 272 273
Wind_Speed
17 17 17 16 16 16 17 18 19 19 19 20 21 23 23 24 25 26 27 27 28 29 29 30 26 22 11 5 16 11 23 20 14 6 5 9 8 5 8 6 7 14 2 7 17 16 9
15 16 17 17 17 16 16 18 17 18 20 20 21 23 22 24 25 26 27 28 30 29 31 30 29 22 10 23 6 5 8 14 9 6 7 9 8 10 6 9 14 3 13 22 12 8 6
16 16 16 17 17 18 20 19 20 19 20 21 23 23 23 24 25 27 28 30 30 30 32 29 29 15 16 30 7 19 19 12 10 11 13 14 12 6 4 5 8 14 18 16 16 8 7
18 18 17 18 18 19 18 18 19 19 20 21 23 23 23 25 25 27 29 31 31 32 28 29 24 8 15 1 7 10 14 13 6 10 14 15 12 16 8 5 5 4 4 18 17 13 8
18 18 19 19 18 19 20 20 20 21 21 22 22 22 23 25 26 27 30 31 32 28 27 18 8 2 11 5 3 5 3 11 20 11 6 12 7 9 5 15 10 7 18 13 11 5 8
18 17 19 16 18 17 20 21 20 21 22 22 22 23 24 26 26 28 30 31 26 19 8 5 4 3 6 8 4 18 18 15 10 16 15 10 8 11 13 14 23 26 12 4 7 10 15
18 19 19 19 18 19 19 22 22 23 22 22 24 24 25 26 27 29 23 6 8 5 7 10 19 23 28 27 8 16 18 15 14 13 20 19 16 23 28 26 25 23 17 16 12 7 10
17 18 19 21 21 21 19 20 22 23 23 23 23 24 26 26 28 29 4 3 9 10 16 15 23 24 26 18 19 27 6 5 4 8 11 13 26 33 27 20 23 25 24 23 10 10 9
16 17 18 20 19 20 18 21 22 23 22 23 24 26 26 27 28 8 1 10 7 7 9 19 12 12 7 6 9 12 8 3 8 10 15 21 29 16 28 28 26 26 25 25 21 5 14
17 16 15 19 21 22 20 19 21 22 23 24 25 26 26 29 10 3 8 6 6 1 6 10 4 7 2 3 6 7 8 6 6 11 12 17 26 26 25 22 30 29 28 24 22 14 19
20 14 16 16 21 20 22 23 24 23 22 23 24 26 26 25 11 3 8 8 4 2 6 7 6 2 7 5 7 23 8 5 21 19 6 12 14 17 21 30 24 27 23 23 22 17 17
20 20 18 19 17 20 21 22 23 23 24 23 24 26 28 10 2 7 6 6 3 6 10 8 5 10 17 25 19 9 8 5 7 12 13 27 15 9 12 5 15 20 7 16 13 14 22
19 19 17 19 19 22 22 24 24 25 24 23 24 27 23 4 5 3 4 4 6 4 8 10 21 22 21 28 15 4 5 5 5 5 5 6 19 24 14 12 10 6 12 9 12 13 16
19 20 19 18 19 22 24 22 23 25 26 25 24 27 9 4 4 1 3 6 3 6 8 12 18 27 21 11 6 4 7 8 3 5 7 4 9 6 11 22 10 10 12 9 11 5 13
20 20 21 19 19 21 22 24 23 24 25 25 19 4 5 3 1 3 4 3 8 6 6 14 26 8 6 5 5 5 4 4 4 2 3 6 7 8 10 5 20 8 12 2 1 2 5
20 19 20 19 21 20 23 24 24 23 25 25 3 4 5 4 3 4 3 7 5 6 18 17 19 9 12 13 6 3 3 5 3 4 1 4 10 5 2 5 6 5 7 7 10 6 9
22 17 20 21 20 21 23 22 25 22 24 19 3 4 4 3 3 4 3 8 8 14 14 5 13 18 15 11 6 3 5 7 5 6 2 3 4 7 5 6 9 9 5 4 2 2 2
19 19 20 20 20 21 22 23 24 24 23 7 2 3 2 2 3 2 3 6 11 17 11 11 10 15 14 5 4 3 5 4 7 6 8 5 4 5 8 2 4 3 5 6 4 5 2
19 19 20 20 20 20 21 24 22 22 22 4 4 3 2 3 3 2 6 9 6 5 7 5 6 8 16 7 6 4 4 6 8 8 6 3 3 6 7 0 1 3 2 4 4 3 7
18 18 21 21 19 21 20 22 22 23 23 4 3 4 5 1 1 3 4 8 5 6 11 7 13 12 14 10 2 8 9 7 12 13 14 4 3 4 6 8 4 3 2 2 12 3 3
17 17 21 19 19 17 21 22 22 24 22 2 1 5 5 5 4 5 2 5 10 7 5 8 6 6 19 9 5 4 5 12 5 5 6 3 3 4 13 9 3 6 7 7 3 2 4
17 17 20 19 19 19 21 20 22 24 19 2 3 4 1 3 2 2 4 6 12 8 3 9 6 20 16 12 14 21 15 11 9 4 5 4 5 6 7 6 7 5 12 8 9 6 5
18 15 19 18 18 20 20 20 22 22 13 2 2 2 3 2 3 1 5 6 13 16 11 10 17 20 12 14 10 18 18 18 16 12 7 4 3 5 5 2 3 6 9 7 3 7 3
18 16 17 18 17 19 21 20 22 21 16 3 3 3 3 7 3 7 13 15 17 14 14 23 18 5 10 14 18 15 10 14 14 15 9 3 2 3 6 4 4 3 2 2 3 6 6
17 16 15 18 17 18 21 19 23 20 18 3 2 2 2 5 9 11 11 11 9 10 10 14 16 8 13 9 5 8 6 3 3 6 10 11 3 4 2 2 3 2 4 3 3 4 8
16 16 17 16 16 19 20 19 22 20 17 1 3 3 2 5 5 6 3 4 4 5 6 6 11 7 4 4 3 3 4 4 4 2 2 7 8 3 3 3 1 4 6 3 1 1 7
17 15 17 15 16 18 20 20 22 19 15 2 3 4 2 4 5 3 3 4 2 4 6 5 9 8 3 4 3 3 4 2 4 4 5 2 2 1 3 3 2 5 9 1 4 6 12
16 16 17 14 16 17 19 19 21 16 14 4 3 4 3 3 7 6 4 3 5 4 3 6 7 5 4 6 3 4 4 4 3 3 4 4 3 3 3 4 3 15 4 6 4 5 6
17 17 17 14 16 17 18 20 21 17 13 2 2 2 3 4 7 4 7 9 7 9 5 2 2 2 3 3 3 4 4 4 2 4 4 4 4 3 4 3 4 3 6 4 4 4 6
Wind_Direction
16 11 10 15 10 4 4 3 3 360 353 355 352 348 345 340 340 338 337 334 331 328 327 323 322 327 335 274 250 291 307 327 322 255 209 213 215 196 228 206 224 249 241 225 231 239 225
13 9 8 3 359 356 355 355 356 353 351 350 350 344 341 340 338 335 332 330 327 324 324 317 314 316 299 264 269 304 343 322 300 269 243 206 212 218 258 230 224 228 224 244 252 242 222
4 1 2 358 358 355 356 356 349 346 352 345 342 342 339 337 335 332 327 327 323 319 315 307 305 299 266 252 290 304 303 282 288 272 279 253 236 215 189 262 240 248 263 269 244 243 242
3 358 359 354 356 348 354 352 347 344 347 337 342 337 335 333 330 327 324 324 320 315 306 303 306 277 256 209 223 276 280 290 280 264 245 263 213 230 228 309 308 231 214 241 242 232 217
355 354 355 356 354 347 351 349 342 338 340 334 336 335 333 332 329 327 325 321 317 312 305 313 312 223 264 315 246 278 84 329 314 299 281 263 218 225 169 224 250 222 242 237 253 215 208
354 351 347 353 348 346 341 345 343 345 336 337 331 334 330 329 327 325 323 325 307 310 320 309 278 306 276 260 284 326 319 322 325 305 297 253 234 216 216 205 225 230 228 219 190 190 210
358 352 349 352 349 347 346 343 339 333 335 341 334 328 328 327 325 324 327 338 357 331 36 271 256 261 277 278 289 292 288 295 281 268 250 254 244 226 217 217 228 240 239 239 232 240 196
345 349 348 347 344 342 343 343 336 336 336 336 326 328 327 327 325 321 18 1 300 290 303 254 253 255 253 273 288 284 254 174 262 265 290 253 251 231 231 225 223 228 238 246 259 229 239
342 347 350 346 336 335 342 341 335 331 334 329 330 331 328 326 323 342 0 290 293 337 286 293 258 256 254 197 229 269 189 202 224 275 253 240 250 242 235 233 233 235 237 240 240 215 238
337 334 346 344 338 341 338 337 329 330 335 330 331 328 327 327 329 297 294 279 304 120 286 271 269 270 183 244 264 226 237 243 225 238 260 241 260 242 253 256 221 234 224 232 238 235 242
333 337 339 343 336 334 334 335 336 335 333 331 329 326 326 326 298 301 277 320 317 47 314 273 296 242 333 270 274 297 243 187 250 247 221 249 231 231 241 236 223 228 217 216 223 233 243
336 332 336 334 332 335 335 334 335 332 330 330 329 324 322 321 279 247 309 317 45 47 258 307 301 328 325 312 298 275 266 219 242 255 250 247 243 214 200 295 223 230 195 215 216 216 234
329 332 335 338 339 341 335 332 332 332 331 331 327 322 319 309 257 319 351 27 23 140 321 293 319 318 309 299 296 273 296 284 250 288 265 271 231 240 248 248 252 253 193 214 218 214 235
329 331 330 336 339 334 329 330 336 333 332 330 327 319 296 253 293 297 54 46 105 246 258 302 301 304 280 276 264 274 287 282 271 241 279 292 319 164 186 202 211 206 238 204 209 191 225
329 330 331 331 331 330 332 333 334 334 334 336 331 300 308 278 87 80 61 51 216 244 297 308 315 301 285 276 274 340 237 250 249 235 292 303 285 305 208 185 192 190 223 334 332 2 61
323 326 331 329 329 330 334 334 331 337 336 340 331 334 284 294 100 63 82 247 229 256 303 305 291 251 287 294 300 330 300 244 273 248 202 275 288 310 265 113 205 178 164 192 217 215 214
324 328 328 330 329 329 332 331 331 335 338 348 34 355 261 17 67 55 188 231 270 288 305 274 286 286 284 292 237 239 270 286 236 301 304 254 239 293 281 192 180 184 217 170 116 169 88
320 327 325 327 329 332 332 331 335 330 341 355 301 312 291 78 25 321 243 209 293 295 299 273 265 271 277 286 277 262 253 253 344 335 308 222 269 269 253 200 250 181 234 180 132 223 220
317 325 325 319 324 330 335 330 330 336 343 333 249 237 336 93 262 269 290 281 252 285 290 302 277 289 320 314 302 238 273 285 324 344 297 314 283 307 337 40 26 145 197 160 140 103 198
320 324 321 326 325 330 330 327 331 331 333 0 303 287 308 351 160 232 279 267 284 265 275 265 282 287 329 309 254 285 302 310 329 298 307 307 309 311 297 309 297 272 54 244 213 189 177
318 319 316 317 322 327 328 328 331 330 335 67 239 245 202 274 261 229 161 267 296 311 241 305 293 315 324 306 280 257 287 297 288 300 353 55 272 284 296 289 291 42 22 341 322 72 224
309 315 316 323 320 329 323 330 325 329 342 137 286 306 230 277 289 287 272 262 291 295 282 300 282 309 310 294 286 294 293 292 276 313 27 336 274 358 300 348 13 65 13 17 41 355 22
303 311 313 315 327 324 325 324 325 330 354 257 230 250 273 322 287 203 248 256 292 311 294 277 295 304 298 280 260 273 278 270 257 276 298 294 325 351 275 33 51 23 349 12 82 30 341
299 302 314 313 323 323 322 320 327 329 337 199 243 286 271 276 219 254 275 282 287 284 272 292 301 264 273 310 298 280 269 261 260 251 213 230 352 255 263 15 48 222 288 295 87 62 35
296 302 310 307 317 319 314 321 324 326 325 162 215 228 252 272 287 280 269 266 281 279 269 274 280 255 310 310 298 331 330 341 293 205 211 202 214 267 341 62 157 52 353 350 15 60 16
290 294 305 307 311 313 315 316 324 322 324 121 223 177 267 288 254 288 295 258 279 298 297 253 300 305 320 280 284 282 304 300 339 2 31 184 213 290 345 71 70 258 324 224 198 345 7
283 286 296 304 306 310 311 314 321 323 332 330 247 178 229 260 269 120 248 239 274 289 268 305 328 335 12 328 319 322 320 311 15 19 336 352 9 156 253 115 348 355 311 324 57 284 339
275 281 292 297 300 306 308 306 317 322 330 343 264 191 213 252 270 222 246 218 302 269 273 298 346 348 339 1 353 341 304 1 8 355 346 22 337 12 17 59 4 342 15 57 327 310 313
272 274 284 288 293 299 303 306 313 318 309 38 267 254 211 238 253 239 241 244 229 256 286 309 266 292 332 332 353 320 316 341 359 4 346 38 357 357 20 75 95 26 68 359 333 304 331